Regional Weather Roundup
Issued by NWS Cleveland, OH

Home | Current Version | Previous Version | Graphics & Text | Print | Product List | Glossary On
Versions: 1 2 3 4 5 6 7 8 9 10 11 12 13 14 15 16 17 18 19 20 21 22 23 24 25 26 27 28 29 30 31 32 33 34 35 36 37 38 39 40 41 42 43 44 45 46 47 48 49 50
000
ASUS41 KCLE 280002
RWRCLE
OHIO REGIONAL WEATHER ROUNDUP
NATIONAL WEATHER SERVICE CLEVELAND, OH
800 PM EDT MON JUL 27 2015

NOTE: "FAIR" INDICATES FEW OR NO CLOUDS BELOW 12,000 FEET WITH NO
SIGNIFICANT WEATHER AND/OR OBSTRUCTIONS TO VISIBILITY.

OHZ001>008-015>018-024>027-034-035-043-044-280100-
   NORTHWEST OHIO

CITY           SKY/WX    TMP DP  RH WIND       PRES   REMARKS
DEFIANCE       CLEAR     83  61  47 E7        29.99R
FINDLAY        PTCLDY    84  66  54 E10       29.97S
TOLEDO EXPRESS CLEAR     81  60  48 E6        29.99S
TOLEDO EXEC    CLEAR     82  61  48 E7        30.00S
LIMA           CLEAR     82  62  50 E3        29.99R
$$

OHZ009>014-019>023-028>033-038-089-280100-
   NORTHEAST OHIO

CITY           SKY/WX    TMP DP  RH WIND       PRES   REMARKS
CLE-HOPKINS    PTCLDY    80  64  58 N8        30.01S
CLE-LAKEFRONT  CLEAR     78  69  73 NE13      29.98S
CUY CO. ARPT   PTCLDY    81  66  61 E12       30.01S
LORAIN-ELYRIA  CLEAR     79  59  50 NE7       30.00S
ASHTABULA      CLEAR     80  62  54 CALM      30.02S
AKRON-CANTON   PTCLDY    83  59  44 E5        30.00S
WOOSTER        CLEAR     79  66  64 N5        30.00S
MANSFIELD      CLEAR     81  66  60 N7        30.01S
YOUNGSTOWN     PTCLDY    82  65  56 N8        30.01R
$$

OHZ042-051>053-060>062-070>072-077>081-280100-
  SOUTHWEST OHIO

CITY           SKY/WX    TMP DP  RH WIND       PRES   REMARKS
CINC-COVINGTON PTCLDY    84  72  67 E6        29.95R
CINC-LUNKEN    CLEAR     82  74  76 NE6       29.94R
HAMILTON       CLEAR     84  72  67 NE5       29.95S
DAYTON         PTCLDY    81  73  76 NE6       29.99R
WRIGHT-PAT AFB PTCLDY    81  74  77 NE5       29.97R
DAYTON GENERAL   N/A    N/A N/A N/A MISG      29.97R
WILMINGTON     CLEAR     82  70  66 CALM      29.97R
$$

OHZ036-037-039>041-045>050-054>059-063>069-073>076-082>088-280100-
  CENTRAL AND SOUTHEAST OHIO

CITY           SKY/WX    TMP DP  RH WIND       PRES   REMARKS
COLUMBUS       MOCLDY    82  68  62 NE6       29.96S
OSU AIRPORT    CLOUDY    81  66  60 NE6       29.97S
BOLTON FIELD   NOT AVBL
RICKENBACK AFB NOT AVBL
NEWARK         PTCLDY    83  64  52 NE5       29.97S
MARION         CLEAR     84  63  49 N3        29.99S
LANCASTER      PTCLDY    81  72  74 E6        29.97S
ZANESVILLE     CLEAR     83  65  54 CALM      29.97S
NEW PHILLY     CLEAR     82  65  56 N5        29.99R
$$



USA.gov is the U.S. government's official web portal to all federal, state and local government web resources and services.